Weather History for Hurlburt Field, FL

Change the Weather History Date:

Thursday, April 10, 2014

  Actual Average Record
Temperature  
Mean Temperature 58 °F -  
Max Temperature 70 °F 72 °F 80 °F (1999)
Min Temperature 47 °F 56 °F 44 °F (2003)
Degree Days  
Heating Degree Days 6    
Growing Degree Days 8 (Base 50)    
Moisture  
Dew Point 46 °F    
Average Humidity 60    
Maximum Humidity 84    
Minimum Humidity 33    
Precipitation  
Precipitation 0.00 in - - ()
Sea Level Pressure  
Sea Level Pressure 30.24 in    
Wind  
Wind Speed 5 mph (SE)    
Max Wind Speed 10 mph    
Max Gust Speed -    
Visibility 10 miles    
Events      
Averages and records for this station are not official NWS values.
T = Trace of Precipitation, MM = Missing Value Source: NWS Daily Summary

Daily Weather History Graph

Daily Weather History Graph

Search for Another Location

Airport:

Trip Planner

Search our weather history database for the weather conditions in past years. The results will help you decide how hot, cold, wet, or windy it might be!

Date:

Astronomy

Apr. 10, 2014 Rise Set
Actual Time 6:25 AM CDT 7:11 PM CDT
Civil Twilight 6:00 AM CDT 7:35 PM CDT
Nautical Twilight 5:31 AM CDT 8:04 PM CDT
Astronomical Twilight 5:02 AM CDT 8:34 PM CDT
Moon 3:11 PM CDT (4/10) 3:29 AM CDT (4/10)
Length of Visible Light 13h 35m
Length of Day
12h 46m
Waxing Gibbous, 80% of the Moon is Illuminated
Apr 10
Waxing Gibbous
Apr 15
Full
Apr 22
Last Quarter
Apr 29
New
May 6
First Quarter

Hourly Weather History & Observations

Time (CDT) Temp. Dew Point Humidity Pressure Visibility Wind Dir Wind Speed Gust Speed Precip Events Conditions
12:58 AM 52.9 °F 39.4 °F 60% 30.21 in 10.0 mi North 3.5 mph - N/A   Clear
1:58 AM 52.9 °F 42.3 °F 67% 30.21 in 10.0 mi North 3.5 mph - N/A   Clear
2:58 AM 49.3 °F 43.5 °F 81% 30.21 in 10.0 mi North 3.5 mph - N/A   Clear
3:58 AM 48.6 °F 43.0 °F 81% 30.21 in 10.0 mi North 4.6 mph - N/A   Clear
4:58 AM 47.3 °F 42.3 °F 83% 30.22 in 10.0 mi NNE 2.3 mph - N/A   Clear
5:58 AM 47.3 °F 42.4 °F 83% 30.24 in 10.0 mi North 3.5 mph - N/A   Clear
6:58 AM 47.7 °F 43.2 °F 84% 30.25 in 10.0 mi North 3.5 mph - N/A   Clear
7:58 AM 55.4 °F 50.0 °F 82% 30.27 in 10.0 mi East 2.3 mph - N/A   Clear
8:58 AM 62.6 °F 50.5 °F 65% 30.28 in 10.0 mi NNE 1.2 mph - 0.00 in   Light Drizzle
9:02 AM 62.6 °F 50.0 °F 63% 30.27 in 10.0 mi Variable 1.2 mph - N/A   Clear
9:58 AM 68.5 °F 47.5 °F 47% 30.30 in 10.0 mi South 5.8 mph - 0.00 in   Clear
10:58 AM 69.1 °F 41.5 °F 37% 30.30 in 10.0 mi SSE 8.1 mph - 0.00 in   Clear
11:58 AM 70.2 °F 40.5 °F 34% 30.28 in 10.0 mi SE 8.1 mph - N/A   Clear
12:58 PM 70.0 °F 39.4 °F 33% 30.28 in 10.0 mi SSE 8.1 mph - N/A   Clear
1:58 PM 70.0 °F 45.0 °F 41% 30.26 in 10.0 mi SSE 10.4 mph - N/A   Clear
2:58 PM 69.8 °F 44.1 °F 39% 30.24 in 10.0 mi SSE 10.4 mph - N/A   Clear
3:58 PM 69.4 °F 45.9 °F 43% 30.23 in 10.0 mi South 10.4 mph - N/A   Clear
4:58 PM 68.7 °F 46.8 °F 45% 30.23 in 10.0 mi South 10.4 mph - N/A   Clear
5:58 PM 67.5 °F 49.5 °F 52% 30.23 in 10.0 mi SSW 8.1 mph - N/A   Clear
6:58 PM 65.5 °F 48.7 °F 55% 30.23 in 10.0 mi SSW 6.9 mph - N/A   Clear
7:58 PM 63.7 °F 49.8 °F 61% 30.23 in 10.0 mi South 4.6 mph - 0.00 in   Light Drizzle
7:59 PM 64.4 °F 50.0 °F 59% 30.22 in 10.0 mi South 4.6 mph - N/A   Clear
8:58 PM 62.6 °F 51.1 °F 66% 30.23 in 10.0 mi Calm Calm - 0.00 in   Clear
9:58 PM 63.5 °F 51.1 °F 64% 30.24 in 10.0 mi South 6.9 mph - N/A   Clear
10:58 PM 63.5 °F 51.8 °F 66% 30.24 in 10.0 mi South 5.8 mph - N/A   Clear
11:58 PM 62.4 °F 53.1 °F 71% 30.23 in 10.0 mi North 2.3 mph - N/A   Clear